Serikzhan Abiken

Recruteur en chef - Kairat
3 Févr 2028
Jeudi
Processus

Personnalité

Adaptabilité (7) Ambition (16) Controverse (17) Loyauté (15) Pression (2) Professionnalisme (15) Sportivité (3) Tempérament (6)

Profil

Style d'entraînement Démocratique
Diplôme National A
Détermination 5
Gestion des joueurs 10
Motivation 4
Discipline 10
Satisfaction professionnelle
100%
Fatigue
0%
Rôle Recruteur en chef
Salaire 57.2K p/s
Contrat 14.03.2028

Performance

Comportement Bon
Efficacité de l'entraînement
41%
Développement des joueurs
45%
Prévention des blessures
45%
Mise en place tactique
30%

Événements récents

Négociation de contrat entamée maintenant
A participé à une réunion de recrutement maintenant
Négociation de contrat entamée 7j
A évalué un joueur 7j
Négociation de contrat entamée 7j
A évalué un joueur 7j
A présenté un dossier au conseil 7j
Négociation de contrat entamée 7j

Suivi en cours

71
Joueur Club Statut Capacité Confiance Observé Dernière observation Dernier vote
Sebastián Cocimano Nueva Chicago Perdu 122 / 120 40% 1 29.01.2028 -
Jhon Aponza Boca Juniors Actif 106 / 118 40% 1 29.01.2028 -
Léo Natel Ordabasy Actif 128 / 109 51% 1 28.01.2028 -
Piotr Samiec-Talar Slask Actif 98 / 126 40% 1 28.01.2028 -
Artur Shushenachev Aktobe Actif 104 / 109 40% 1 28.01.2028 -
Aleksandr Marochkin Tobol Actif 106 / 93 51% 1 25.01.2028 -
Islom Kenjaboyev Qizilqum Perdu 110 / 117 40% 1 25.01.2028 -
Miguel Ceccotti Güemes Perdu 119 / 104 40% 1 25.01.2028 -
Matías Canedo Rampla Juniors Actif 85 / 98 40% 3 06.09.2027 -
Thiago Martínez Defensa y Justicia Actif 109 / 110 40% 1 06.09.2027 -
Aleksa Stanisavljevic Amkar Actif 95 / 79 40% 1 30.08.2027 -
Bahodir Halilov Navbahor Actif 99 / 101 40% 1 30.08.2027 -
Facundo Balatti Penarol Actif 96 / 112 40% 1 29.08.2027 -
Yaroslav Matyukhin Alashkert Actif 113 / 93 40% 1 27.08.2027 -
Luka Tsulaia Dinamo Tbilisi Actif 103 / 89 40% 1 27.08.2027 -
Denis Traigel Avangard Actif 68 / 94 40% 2 25.08.2027 -
Lucas Camejo River Plate Actif 91 / 104 40% 2 25.08.2027 -
Alexandr Voronovich Niva Actif 58 / 77 40% 2 24.08.2027 -
Nikolay Sotnikov Arsenal Dzerzhinsk Actif 102 / 86 40% 2 23.08.2027 -
Agustín Obregón River Plate Actif 119 / 116 40% 1 23.08.2027 -
Juan Camilo Quintero Cortulua Actif 64 / 90 40% 2 21.08.2027 -
Uzoigwe Odinaka Gazelle Actif 71 / 89 40% 2 21.08.2027 -
Artem Biryukov Rodina Actif 85 / 94 40% 1 20.08.2027 -
Siphesihle Sithole Inter Allies Actif 102 / 93 40% 2 18.08.2027 -
Teo Rodríguez Pagano San Lorenzo Actif 95 / 128 40% 1 14.08.2027 -
Diego Cheuquepal Plaza Colonia Actif 96 / 121 40% 1 14.08.2027 -
Mattia Puzone Siracusa Actif 112 / 119 40% 2 11.08.2027 -
Celías Ingenthron Racing Club Actif 109 / 136 40% 1 10.08.2027 -
Emirhan Akçay Giresunspor Actif 94 / 86 40% 2 07.08.2027 -
Jens Mathijsen Willem II Actif 118 / 107 40% 1 06.08.2027 -
Mohamed Bolivar Barranquilla Actif 77 / 88 40% 1 03.08.2027 -
Vladimir Skomarovskiy Niva Actif 58 / 95 40% 1 01.08.2027 -
Kian Best Eibar Actif 104 / 99 40% 1 29.07.2027 -
Temirlan Erlanov Aktobe Actif 107 / 104 48% 1 26.07.2027 -
Fabián Correa Barranquilla Actif 107 / 76 40% 1 20.07.2027 -
Timur Melekestsev Arsenal Tula Actif 96 / 105 40% 1 12.07.2027 -
Danil Karpov Chernomorets Actif 78 / 79 40% 1 05.07.2027 -
José Álvarez Arsenal Tula Actif 117 / 126 40% 1 05.07.2027 -
Yaroslav Svanson Orenburg Actif 53 / 82 40% 1 21.06.2027 -
Stepan Laskin Dinamo Moscow Actif 82 / 80 40% 1 20.06.2027 -
Stanislav Biblyk Chaika Actif 96 / 108 40% 1 19.06.2027 -
Nikita Simdyankin KDV Tomsk Actif 73 / 85 40% 1 18.06.2027 -
Bernardo Lima Porto Actif 111 / 102 40% 1 16.06.2027 -
Alexandr Yushin Torpedo Moscow Actif 126 / 99 40% 1 15.06.2027 -
Joe Knight Stevenage Actif 85 / 119 40% 1 23.02.2027 -
Maxim Mishutin Ryazan Actif 54 / 86 40% 1 23.02.2027 -
Mihai Căpăţînă Ordabasy Actif 104 / 99 44% 1 22.02.2027 -
Olegs Zjuzins Akhmat Grozny Actif 100 / 120 40% 1 20.02.2027 -
Daniil Cherkasov Torpedo Vladimir Actif 71 / 63 40% 1 20.02.2027 -
Kazunari Kita Real Sociedad Actif 100 / 93 40% 1 18.02.2027 -
Yegor Vedernikov Znamya Truda Actif 55 / 73 40% 1 18.02.2027 -
Migran Ageyan Ufa Actif 95 / 112 40% 1 16.02.2027 -
Mats Egbring Heerenveen Actif 104 / 115 40% 1 16.02.2027 -
Nikita Kononenko Metallurg Actif 82 / 86 40% 2 08.02.2027 -
Sergey Chernov Zenit Actif 100 / 78 40% 1 08.02.2027 -
Maxim Radchenko Rostov Actif 91 / 76 40% 1 27.01.2027 -
Dominik Begić Bukhara Actif 106 / 101 40% 1 01.09.2026 -
Aziz Xolmurodov AGMK Actif 115 / 99 40% 1 01.09.2026 -
Jovan Nišić Lokomotiv Actif 123 / 105 40% 3 25.08.2026 -
Guljigit Alykulov Dinamo Minsk Actif 103 / 114 40% 1 24.08.2026 -
Humoyunmirzo Iminov Andijon Actif 114 / 97 40% 1 24.08.2026 -
Sherzod Esanov Bukhara Actif 100 / 115 40% 1 18.08.2026 -
Ibrohim Yo'ldoshev Andijon Actif 105 / 105 40% 1 17.08.2026 -
Yevhen Protasov Vitebsk Actif 77 / 91 40% 1 10.08.2026 -
Umar Adhamzoda Navbahor Actif 111 / 114 40% 1 05.08.2026 -
Saidazamat Mirsaidov Navbahor Actif 114 / 106 40% 1 03.08.2026 -
Islomjon Qobilov Sogdiana Actif 97 / 108 40% 1 03.08.2026 -
Bojan Dimoski Akron Actif 109 / 117 40% 1 02.08.2026 -
Sharof Muhiddinov Nasaf Actif 107 / 105 40% 1 02.08.2026 -
Thomas Galdames Krylya Sovetov Actif 109 / 122 40% 1 01.08.2026 -
Artem Kasimov Orenburg Actif 98 / 98 40% 1 01.08.2026 -